Torna al catalogo

PAKSAT MM1R

AttivoComunicazioniGEO
NORAD 59915·PAYLOAD·🇵🇰 Pakistan

Lanciato May 30, 2024 da Xichang Satellite Launch Center

Loading…

TLE

AggiornatoSource: Space-Track

Epoca: Sep 14, 2026, 20:49 UTC

1 59915U 24104A   26257.86783383  .00000146  00000-0  00000-0 0  9999
2 59915   0.0404 230.2842 0002195 300.4718 173.6763  1.00271023  8423

Traccia PAKSAT MM1R in tempo reale con AllMySat

Download on the App Store